TimeEAT,TemperatureF,Dew PointF,Humidity,Sea Level PressureIn,VisibilityMPH,Wind Direction,Wind SpeedMPH,Gust SpeedMPH,PrecipitationIn,Events,Conditions,WindDirDegrees,DateUTC
1:00 AM,78.8,75.2,89,29.89,6.2,SSW,6.9,-,N/A,,Partly Cloudy,210,2012-11-16 22:00:00
2:00 AM,78.8,75.2,89,29.89,6.2,SSW,6.9,-,N/A,,Partly Cloudy,210,2012-11-16 23:00:00
3:00 AM,78,75,86,29.87,19,SW,6.9,,,,Mostly Cloudy,230,2012-11-17 00:00:00
3:00 AM,78.8,75.2,89,29.86,6.2,SW,6.9,-,N/A,,Mostly Cloudy,230,2012-11-17 00:00:00
4:00 AM,77.0,75.2,94,29.86,6.2,SSW,5.8,-,N/A,,Mostly Cloudy,210,2012-11-17 01:00:00
5:00 AM,77.0,75.2,94,29.86,6.2,SSW,5.8,-,N/A,,Mostly Cloudy,210,2012-11-17 02:00:00
6:00 AM,77.0,75.2,94,29.89,6.2,SW,3.5,-,N/A,,Mostly Cloudy,220,2012-11-17 03:00:00
7:00 AM,77.0,77.0,100,29.92,6.2,Calm,Calm,-,N/A,,Mostly Cloudy,0,2012-11-17 04:00:00
8:00 AM,78.8,77.0,94,29.95,6.2,NE,3.5,-,N/A,,Mostly Cloudy,40,2012-11-17 05:00:00
9:00 AM,82.4,77.0,84,29.95,6.2,East,5.8,-,N/A,,Mostly Cloudy,80,2012-11-17 06:00:00
10:00 AM,86.0,73.4,66,29.95,6.2,East,10.4,-,N/A,,Mostly Cloudy,100,2012-11-17 07:00:00
11:00 AM,86.0,73.4,66,29.95,6.2,ENE,9.2,-,N/A,,Mostly Cloudy,70,2012-11-17 08:00:00
12:00 PM,84.2,73.4,70,29.92,6.2,ESE,6.9,-,N/A,,Scattered Clouds,120,2012-11-17 09:00:00
1:00 PM,86.0,73.4,66,29.89,6.2,ESE,9.2,-,N/A,,Partly Cloudy,120,2012-11-17 10:00:00
2:00 PM,86.0,73.4,66,-9999,6.2,East,6.9,-,N/A,,Partly Cloudy,100,2012-11-17 11:00:00
3:00 PM,87,72,54,29.86,19,East,6.9,,,,Scattered Clouds,80,2012-11-17 12:00:00
3:00 PM,86.0,73.4,66,29.86,6.2,East,6.9,-,N/A,,Partly Cloudy,80,2012-11-17 12:00:00
4:00 PM,86.0,73.4,66,29.83,6.2,East,8.1,-,N/A,,Partly Cloudy,90,2012-11-17 13:00:00
5:00 PM,84.2,71.6,66,29.83,6.2,SE,8.1,-,N/A,,Partly Cloudy,130,2012-11-17 14:00:00
6:00 PM,82.4,73.4,74,29.83,6.2,SE,5.8,-,N/A,,Partly Cloudy,140,2012-11-17 15:00:00
7:00 PM,80.6,73.4,79,29.86,6.2,SSE,4.6,-,N/A,,Partly Cloudy,160,2012-11-17 16:00:00
8:00 PM,78.8,75.2,89,29.86,6.2,South,5.8,-,N/A,,Partly Cloudy,170,2012-11-17 17:00:00
9:00 PM,79,75,84,29.89,19,South,3.5,,,,Scattered Clouds,180,2012-11-17 18:00:00
9:00 PM,78.8,75.2,89,29.89,6.2,South,3.5,-,N/A,,Partly Cloudy,180,2012-11-17 18:00:00
10:00 PM,78.8,75.2,89,29.92,6.2,Calm,Calm,-,N/A,,Partly Cloudy,0,2012-11-17 19:00:00
11:00 PM,78.8,75.2,89,29.92,6.2,SSW,3.5,-,N/A,,Partly Cloudy,200,2012-11-17 20:00:00